SCP
0 0 0 0 0 0 0 0 0 0 0 0 0 0 0 0 0 0 0 0 0 0 0 0 0 0 0 0 0 0 0 0 0 0 0 0 0 0
0 0 0 0 0 0 0 0 0 0 0 0 0 0 0 0 0 0 0 0 0 0 0 0 0 0 0 0 0 0 0 0 0 0 0 0 0 0
0 0 0 0 0 0 0 0 0 0 0 0 0 0 0 0 0 0 0 0 0 0 0 0 0 0 0 0 0 0 0 0 0 0 0 0 0 0
0 0 0 0 0 0 0 0 0 0 0 0 0 0 0 0 0 0 0 0 0 0 0 0 0 0 0 0 0 0 0 0 0 0 0 0 0 0
0 0 0 0 0 0 0 0 0 0 0 0 0 0 0 0 0 0 0 0 0 0 0 0 0 0 0 0 0 0 0 0 0 0 0 0 0 0
0 0 0 0 0 0 0 0 0 0 0 0 0 0 0 0 0 0 0 0 0 -0 0 0 0 0 0 0 0 0 0 0 0 0 0 0 0 0
0 0 0 0 0 0 0 0 0 0 0 0 0 0 0 0 0 0 0 0 -0 0 0 0 0 0 0 0 -0 0 0 0 0 0 0 0 0 0
0 0 0 0 0 0 0 0 0 0 0 0 0 0 0 0 0 0 0 -0 -0 0 0 0 -0 -0 -0 0 0 0 0 0 0 0 0 0 0 0
0 0 0 0 0 0 0 0 0 0 0 0 0 0 0 0 0 0 0 0 0 0 0 -0 -0 -0 -0 0 -0 -0 0 0 0 0 0 0 0 0
0 0 0 0 0 0 0 0 0 0 0 0 0 0 0 0 0 0 0 0 0 -0 0 0 0 -0 0 -0 -0 -0 0 0 0 0 0 0 0 0
0 0 0 0 0 0 0 0 0 0 0 0 0 0 0 0 0 0 0 0 0 0 0 0 0 0 -0 -0 -0 0 -0 -0 -0 -0 0 0 0 0
0 0 0 0 0 0 0 0 0 0 0 0 0 0 0 0 0 0 0 0 0 0 0 0 0 -0 -0 -0 0 -0 -0 -0 0 -0 -0 -0 0 -0
0 0 0 0 0 0 0 0 0 0 0 0 0 0 0 0 0 0 0 0 0 0 0 0 0 0 0 0 0 -0 -0 -0 -0 -0 -0 -0 0 0
0 0 0 0 0 0 0 0 0 0 0 0 0 0 0 0 0 0 0 0 0 0 0 0 0 0 0 0 0 0 0 0 -0 -0 -0 -0 0 0
0 0 0 0 0 0 0 0 0 0 0 0 0 0 0 0 0 0 0 0 0 0 0 0 0 0 0 0 0 0 0 -0 -0 0 -0 -0 -0 -0
0 0 0 0 0 0 0 0 0 0 0 0 0 0 0 0 0 0 0 0 0 0 0 0 0 0 0 0 0 0 0 0 0 0 0 0 0 0
0 0 0 0 0 0 0 0 0 0 0 0 0 0 0 0 0 0 0 0 0 0 0 0 0 0 0 0 0 0 0 0 0 0 0 0 0 0
0 0 0 0 0 0 0 0 0 0 0 0 0 0 0 0 0 0 0 0 0 0 0 0 0 0 0 0 0 0 0 0 0 0 0 0 0 0
0 0 0 0 0 0 0 0 0 0 0 0 0 0 0 0 0 0 0 0 0 0 0 0 0 0 0 0 0 -0 0 0 0 0 0 0 0 0
0 0 0 0 0 0 0 0 0 0 0 0 0 0 0 0 0 0 0 0 0 0 0 0 0 0 0 0 0 0 -0 0 0 0 0 0 0 -0
0 0 0 0 0 0 0 0 0 0 0 0 0 0 0 0 0 0 0 0 0 0 0 0 0 0 0 0 0 0 0 0 0 0 0 0 0 -0
0 0 0 0 0 0 0 0 0 0 0 0 0 0 0 0 0 0 0 0 0 0 0 0 0 0 0 0 0 0 0 0 0 0 0 0 0 -0
0 0 0 0 0 0 0 0 0 0 0 0 0 0 0 0 0 0 0 0 0 0 0 0 0 0 0 0 0 0 0 0 0 0 0 0 0 0
Wind_Speed_500mb
41 39 37 36 34 32 31 29 28 21 20 20 19 18 27 30 33 36 39 41 43 46 47 50 53 54 54 56 54 55 58 61 62 60 60 65 70 71
38 36 34 31 29 26 22 19 18 17 15 19 23 29 32 36 39 42 44 46 46 50 50 50 53 56 54 52 53 55 56 58 59 60 61 59 59 64
33 31 28 25 22 19 17 17 17 18 22 27 30 34 35 41 42 44 47 50 48 52 54 56 54 50 48 56 60 60 59 60 59 58 56 57 58 61
27 25 23 21 20 20 20 21 23 24 27 32 36 41 43 47 50 51 50 50 50 51 53 52 50 57 64 65 65 65 65 64 62 58 57 59 61 61
25 24 24 24 23 23 23 25 27 30 33 36 41 42 47 48 51 54 58 60 55 56 52 52 58 63 62 65 66 66 65 64 70 71 67 66 63 63
27 27 26 27 28 28 28 30 32 33 35 37 40 42 47 51 56 63 67 67 71 64 57 63 64 65 67 67 67 67 71 73 72 68 66 69 69 68
30 30 30 31 32 32 32 32 33 35 36 37 40 43 47 54 60 65 69 72 70 62 70 71 72 72 69 68 72 74 73 70 67 63 70 75 76 79
32 32 33 33 34 33 32 33 33 34 37 37 39 46 49 54 57 59 63 71 78 67 83 85 78 74 72 74 70 69 64 62 68 77 75 78 80 79
33 32 31 31 34 32 31 32 33 33 38 41 41 46 49 51 53 55 56 61 66 73 80 93 82 84 86 83 78 63 61 72 78 80 81 77 76 78
31 31 31 32 35 37 34 32 32 33 37 41 41 41 43 47 49 53 57 62 62 60 70 82 86 96 95 91 63 69 75 80 80 77 77 79 81 82
31 30 34 33 36 41 38 36 35 35 36 34 34 37 39 43 49 51 53 61 69 66 55 69 87 99 101 80 80 85 90 93 87 86 83 81 79 80
35 36 35 36 41 45 43 38 35 35 32 31 32 34 37 40 45 46 50 55 59 63 49 74 77 82 88 96 104 103 101 94 93 89 85 78 79 84
34 35 36 37 42 42 42 34 33 34 34 36 34 35 37 40 41 42 43 47 51 54 51 58 71 71 72 92 109 107 101 103 98 90 80 86 87 79
33 35 38 41 42 42 40 35 34 33 36 38 39 40 39 38 39 42 42 43 45 49 47 44 58 62 68 86 96 108 103 99 92 81 96 94 92 89
36 39 38 42 40 35 35 37 33 35 38 41 41 43 44 44 43 44 45 46 46 43 40 43 49 56 60 68 84 97 103 103 80 96 97 99 99 97
41 40 43 41 37 34 34 36 35 36 40 43 43 45 47 47 46 48 53 55 57 50 40 42 49 54 63 65 71 85 74 86 94 96 99 101 99 97
46 44 41 39 38 36 35 35 36 39 41 43 45 47 49 51 49 50 53 57 57 62 61 52 50 55 59 63 71 60 78 85 88 93 98 109 105 100
47 42 41 43 41 39 38 37 38 40 43 46 47 49 52 53 55 53 54 58 62 62 62 59 63 70 75 67 41 63 72 89 89 90 89 102 117 106
50 45 45 44 42 41 41 42 42 42 46 47 49 51 54 56 57 59 60 62 64 63 60 58 59 60 72 81 77 57 80 83 87 91 87 91 110 119
50 48 44 43 42 44 45 47 47 47 47 48 51 51 52 58 60 61 62 65 66 67 67 57 55 55 60 71 83 84 64 74 77 86 97 101 101 98
51 49 48 47 47 48 49 51 53 51 50 51 52 53 52 59 61 61 64 65 67 68 72 65 56 54 58 65 74 82 78 67 67 72 85 93 106 116
51 53 50 51 51 52 53 55 56 55 54 54 55 55 55 59 63 63 64 66 66 68 71 68 60 59 56 59 70 76 83 83 78 79 63 67 79 92
52 54 53 54 53 54 55 57 59 59 57 57 58 58 59 62 61 64 66 66 68 70 69 70 64 59 57 58 66 74 79 85 89 99 96 89 78 77
Wind_Direction_500mb
284 278 273 270 268 264 260 255 248 247 233 240 249 274 296 302 306 311 313 314 314 311 311 312 313 315 316 317 316 313 311 310 311 310 305 299 295 290
279 275 272 269 265 259 248 234 226 231 242 249 262 283 298 306 309 310 312 312 315 312 315 317 320 320 321 320 322 323 321 320 315 314 312 308 303 296
279 275 270 263 253 245 242 245 251 257 264 273 284 294 300 302 306 309 311 314 318 316 317 320 323 321 325 323 323 326 327 324 321 316 312 309 306 302
274 266 257 250 246 249 258 268 275 281 287 292 297 301 305 308 310 310 311 314 318 318 318 322 321 325 326 328 328 326 324 323 320 318 314 315 311 305
261 253 249 251 256 263 271 279 287 293 296 299 301 305 308 310 311 314 318 319 323 324 326 324 327 331 329 326 327 327 326 323 322 322 317 315 311 307
253 252 255 259 265 270 275 281 286 289 295 301 305 311 314 318 321 321 319 322 327 330 330 327 331 329 327 327 327 326 325 326 325 324 322 317 312 306
253 257 263 268 272 275 280 286 293 297 301 306 310 315 318 321 324 326 323 323 326 331 324 324 328 328 327 327 327 326 327 326 325 328 326 321 317 311
261 267 272 278 281 286 293 299 302 305 308 311 314 315 319 320 320 323 325 325 328 331 324 323 328 326 326 327 327 326 325 327 330 327 324 321 319 316
262 268 274 279 284 287 295 298 301 304 307 309 314 313 316 318 320 322 324 324 324 329 325 321 326 325 326 330 329 330 333 335 332 327 324 322 317 313
265 272 280 281 284 290 296 304 304 303 303 306 307 309 311 315 318 322 321 318 318 325 326 318 323 324 326 332 333 333 335 334 330 326 324 321 318 313
268 274 277 279 281 291 302 307 305 301 300 301 303 306 310 313 313 317 317 320 322 329 330 325 324 323 326 330 326 326 331 334 334 333 327 324 320 314
273 276 280 282 286 294 300 300 299 296 298 297 300 303 306 308 311 316 320 322 324 325 328 325 326 332 326 320 320 324 327 332 330 328 327 326 323 319
267 271 274 277 283 294 293 293 293 297 299 301 302 304 306 308 311 316 318 317 316 315 331 324 319 323 320 317 318 322 327 328 329 329 326 324 323 323
267 272 276 281 290 292 289 288 293 298 301 303 308 309 309 310 313 314 314 313 312 316 322 317 310 316 316 315 315 316 324 327 331 329 328 324 322 321
268 270 278 281 283 285 288 292 294 298 301 304 307 310 312 315 317 314 312 310 311 317 321 318 312 311 310 311 313 317 325 325 329 328 328 324 325 325
273 280 281 282 282 281 284 287 293 297 299 301 306 308 309 312 314 315 316 316 317 320 326 319 313 310 309 311 314 317 323 322 327 330 325 322 325 326
272 276 281 281 282 284 287 288 292 295 296 299 303 305 308 310 313 316 316 316 319 321 324 324 318 311 309 314 317 322 328 327 328 329 328 325 323 325
276 280 284 283 285 285 285 286 290 293 296 300 302 304 307 310 312 315 315 316 317 319 321 324 323 319 318 321 328 325 328 328 327 331 328 324 321 324
276 282 282 282 283 282 285 288 293 294 295 297 301 305 307 309 311 313 315 315 315 316 319 322 323 322 318 318 324 334 326 327 332 326 326 320 316 320
279 281 281 280 280 283 287 290 291 293 295 298 300 302 304 305 307 311 312 313 314 315 316 320 320 318 315 315 315 321 332 328 328 323 321 323 320 315
280 282 282 283 284 285 287 289 291 294 296 298 299 300 302 302 304 308 309 310 312 313 313 317 319 314 309 308 313 320 325 331 333 319 320 320 318 320
280 279 280 279 281 284 286 288 290 293 295 297 299 300 301 299 302 305 306 308 310 310 311 313 313 312 312 312 317 321 324 328 336 335 322 321 318 313
278 278 278 278 280 282 285 287 289 292 295 297 297 297 296 298 300 302 305 306 308 309 311 309 309 311 313 315 319 323 325 328 336 336 333 339 325 319
Wind_Speed_850mb
41 39 37 36 34 32 31 29 28 21 20 20 19 18 27 30 33 36 39 41 43 46 47 50 53 54 54 56 54 55 58 61 62 60 60 65 70 71
38 36 34 31 29 26 22 19 18 17 15 19 23 29 32 36 39 42 44 46 46 50 50 50 53 56 54 52 53 55 56 58 59 60 61 59 59 64
33 31 28 25 22 19 17 17 17 18 22 27 30 34 35 41 42 44 47 50 48 52 54 56 54 50 48 56 60 60 59 60 59 58 56 57 58 61
27 25 23 21 20 20 20 21 23 24 27 32 36 41 43 47 50 51 50 50 50 51 53 52 50 57 64 65 65 65 65 64 62 58 57 59 61 61
25 24 24 24 23 23 23 25 27 30 33 36 41 42 47 48 51 54 58 60 55 56 52 52 58 63 62 65 66 66 65 64 70 71 67 66 63 63
27 27 26 27 28 28 28 30 32 33 35 37 40 42 47 51 56 63 67 67 71 64 57 63 64 65 67 67 67 67 71 73 72 68 66 69 69 68
30 30 30 31 32 32 32 32 33 35 36 37 40 43 47 54 60 65 69 72 70 62 70 71 72 72 69 68 72 74 73 70 67 63 70 75 76 79
32 32 33 33 34 33 32 33 33 34 37 37 39 46 49 54 57 59 63 71 78 67 83 85 78 74 72 74 70 69 64 62 68 77 75 78 80 79
33 32 31 31 34 32 31 32 33 33 38 41 41 46 49 51 53 55 56 61 66 73 80 93 82 84 86 83 78 63 61 72 78 80 81 77 76 78
31 31 31 32 35 37 34 32 32 33 37 41 41 41 43 47 49 53 57 62 62 60 70 82 86 96 95 91 63 69 75 80 80 77 77 79 81 82
31 30 34 33 36 41 38 36 35 35 36 34 34 37 39 43 49 51 53 61 69 66 55 69 87 99 101 80 80 85 90 93 87 86 83 81 79 80
35 36 35 36 41 45 43 38 35 35 32 31 32 34 37 40 45 46 50 55 59 63 49 74 77 82 88 96 104 103 101 94 93 89 85 78 79 84
34 35 36 37 42 42 42 34 33 34 34 36 34 35 37 40 41 42 43 47 51 54 51 58 71 71 72 92 109 107 101 103 98 90 80 86 87 79
33 35 38 41 42 42 40 35 34 33 36 38 39 40 39 38 39 42 42 43 45 49 47 44 58 62 68 86 96 108 103 99 92 81 96 94 92 89
36 39 38 42 40 35 35 37 33 35 38 41 41 43 44 44 43 44 45 46 46 43 40 43 49 56 60 68 84 97 103 103 80 96 97 99 99 97
41 40 43 41 37 34 34 36 35 36 40 43 43 45 47 47 46 48 53 55 57 50 40 42 49 54 63 65 71 85 74 86 94 96 99 101 99 97
46 44 41 39 38 36 35 35 36 39 41 43 45 47 49 51 49 50 53 57 57 62 61 52 50 55 59 63 71 60 78 85 88 93 98 109 105 100
47 42 41 43 41 39 38 37 38 40 43 46 47 49 52 53 55 53 54 58 62 62 62 59 63 70 75 67 41 63 72 89 89 90 89 102 117 106
50 45 45 44 42 41 41 42 42 42 46 47 49 51 54 56 57 59 60 62 64 63 60 58 59 60 72 81 77 57 80 83 87 91 87 91 110 119
50 48 44 43 42 44 45 47 47 47 47 48 51 51 52 58 60 61 62 65 66 67 67 57 55 55 60 71 83 84 64 74 77 86 97 101 101 98
51 49 48 47 47 48 49 51 53 51 50 51 52 53 52 59 61 61 64 65 67 68 72 65 56 54 58 65 74 82 78 67 67 72 85 93 106 116
51 53 50 51 51 52 53 55 56 55 54 54 55 55 55 59 63 63 64 66 66 68 71 68 60 59 56 59 70 76 83 83 78 79 63 67 79 92
52 54 53 54 53 54 55 57 59 59 57 57 58 58 59 62 61 64 66 66 68 70 69 70 64 59 57 58 66 74 79 85 89 99 96 89 78 77
Wind_Direction_850mb
284 278 273 270 268 264 260 255 248 247 233 240 249 274 296 302 306 311 313 314 314 311 311 312 313 315 316 317 316 313 311 310 311 310 305 299 295 290
279 275 272 269 265 259 248 234 226 231 242 249 262 283 298 306 309 310 312 312 315 312 315 317 320 320 321 320 322 323 321 320 315 314 312 308 303 296
279 275 270 263 253 245 242 245 251 257 264 273 284 294 300 302 306 309 311 314 318 316 317 320 323 321 325 323 323 326 327 324 321 316 312 309 306 302
274 266 257 250 246 249 258 268 275 281 287 292 297 301 305 308 310 310 311 314 318 318 318 322 321 325 326 328 328 326 324 323 320 318 314 315 311 305
261 253 249 251 256 263 271 279 287 293 296 299 301 305 308 310 311 314 318 319 323 324 326 324 327 331 329 326 327 327 326 323 322 322 317 315 311 307
253 252 255 259 265 270 275 281 286 289 295 301 305 311 314 318 321 321 319 322 327 330 330 327 331 329 327 327 327 326 325 326 325 324 322 317 312 306
253 257 263 268 272 275 280 286 293 297 301 306 310 315 318 321 324 326 323 323 326 331 324 324 328 328 327 327 327 326 327 326 325 328 326 321 317 311
261 267 272 278 281 286 293 299 302 305 308 311 314 315 319 320 320 323 325 325 328 331 324 323 328 326 326 327 327 326 325 327 330 327 324 321 319 316
262 268 274 279 284 287 295 298 301 304 307 309 314 313 316 318 320 322 324 324 324 329 325 321 326 325 326 330 329 330 333 335 332 327 324 322 317 313
265 272 280 281 284 290 296 304 304 303 303 306 307 309 311 315 318 322 321 318 318 325 326 318 323 324 326 332 333 333 335 334 330 326 324 321 318 313
268 274 277 279 281 291 302 307 305 301 300 301 303 306 310 313 313 317 317 320 322 329 330 325 324 323 326 330 326 326 331 334 334 333 327 324 320 314
273 276 280 282 286 294 300 300 299 296 298 297 300 303 306 308 311 316 320 322 324 325 328 325 326 332 326 320 320 324 327 332 330 328 327 326 323 319
267 271 274 277 283 294 293 293 293 297 299 301 302 304 306 308 311 316 318 317 316 315 331 324 319 323 320 317 318 322 327 328 329 329 326 324 323 323
267 272 276 281 290 292 289 288 293 298 301 303 308 309 309 310 313 314 314 313 312 316 322 317 310 316 316 315 315 316 324 327 331 329 328 324 322 321
268 270 278 281 283 285 288 292 294 298 301 304 307 310 312 315 317 314 312 310 311 317 321 318 312 311 310 311 313 317 325 325 329 328 328 324 325 325
273 280 281 282 282 281 284 287 293 297 299 301 306 308 309 312 314 315 316 316 317 320 326 319 313 310 309 311 314 317 323 322 327 330 325 322 325 326
272 276 281 281 282 284 287 288 292 295 296 299 303 305 308 310 313 316 316 316 319 321 324 324 318 311 309 314 317 322 328 327 328 329 328 325 323 325
276 280 284 283 285 285 285 286 290 293 296 300 302 304 307 310 312 315 315 316 317 319 321 324 323 319 318 321 328 325 328 328 327 331 328 324 321 324
276 282 282 282 283 282 285 288 293 294 295 297 301 305 307 309 311 313 315 315 315 316 319 322 323 322 318 318 324 334 326 327 332 326 326 320 316 320
279 281 281 280 280 283 287 290 291 293 295 298 300 302 304 305 307 311 312 313 314 315 316 320 320 318 315 315 315 321 332 328 328 323 321 323 320 315
280 282 282 283 284 285 287 289 291 294 296 298 299 300 302 302 304 308 309 310 312 313 313 317 319 314 309 308 313 320 325 331 333 319 320 320 318 320
280 279 280 279 281 284 286 288 290 293 295 297 299 300 301 299 302 305 306 308 310 310 311 313 313 312 312 312 317 321 324 328 336 335 322 321 318 313
278 278 278 278 280 282 285 287 289 292 295 297 297 297 296 298 300 302 305 306 308 309 311 309 309 311 313 315 319 323 325 328 336 336 333 339 325 319